Regional Weather Roundup
Issued by NWS

Home | Current Version | Previous Version | Text Only | Print | Product List | Glossary Off
Versions: 1 2 3 4 5 6 7 8 9 10 11 12 13 14 15 16 17 18 19 20 21 22 23 24 25 26 27 28 29 30 31 32 33 34 35 36 37 38 39 40 41 42 43 44 45 46 47 48 49 50

015
ASUS45 KBOI 140010
RWRID

IDAHO REGIONAL WEATHER ROUNDUP
NATIONAL WEATHER SERVICE BOISE ID
500 PM MST SAT FEB 13 2016

NOTE: "FAIR" INDICATES FEW OR NO CLOUDS BELOW 12000 FEET
WITH NO SIGNIFICANT WEATHER AND/OR OBSTRUCTIONS TO VISIBILITY

IDZ012-014-140100-
SOUTHWEST IDAHO


CITY           SKY/WX    TMP DP  RH WIND       PRES   REMARKS
BOISE          PTSUNNY   49  26  41 N10       30.27S
CALDWELL       PTSUNNY   51  26  37 MISG      30.28S
MOUNTAIN HOME  SUNNY     50  26  39 NW10      30.27R
$$

IDZ016-017-140100-
SOUTHCENTRAL IDAHO


CITY           SKY/WX    TMP DP  RH WIND       PRES   REMARKS
BURLEY         LGT RAIN  44  31  60 W15G22    30.24S
JEROME         SUNNY     43  26  51 W17       30.26R
TWIN FALLS     SUNNY     45  29  53 W13       30.27R
$$

IDZ019>023-140100-
SOUTHEAST IDAHO


CITY           SKY/WX    TMP DP  RH WIND       PRES   REMARKS
IDAHO FALLS    CLOUDY    35  30  82 SW10      30.24S WCI  27
POCATELLO      PTCLDY    41  30  65 SW17      30.27S
REXBURG        CLOUDY    34  29  82 S10       30.23R WCI  26
$$

IDZ006-010-011-018-031-032-140100-
CENTRAL IDAHO MOUNTAINS


CITY           SKY/WX    TMP DP  RH WIND       PRES   REMARKS
MCCALL         CLOUDY    34  24  67 CALM      30.21F
HAILEY         CLEAR     36  25  64 CALM      30.20R
STANLEY          N/A     36  12  37 NE6       30.22R WCI  31
SALMON         CLOUDY    39  21  48 E5        30.18R
CHALLIS        MOCLDY    38  23  55 SW3       30.17S
$$

IDZ002-004-006-007-026-140100-
NORTHERN IDAHO


CITY           SKY/WX    TMP DP  RH WIND       PRES   REMARKS
LEWISTON       CLOUDY    50  31  48 S10       30.21F
LOWELL           N/A     44  42  93 N3        30.25F
COEUR D`ALENE  CLOUDY    45  36  70 SW13      30.14F
MULLAN PASS    LGT SNOW  25  24  96 SW12G21   30.09S VSB 3/4 WCI  14
$$




USA.gov is the U.S. government's official web portal to all federal, state and local government web resources and services.